This demonstration page uses our WeatherBlox Daily Observations layout. Learn more.

Left ArrowRight Arrow

39.95238, -75.16362

Hourly Observations for May 4, 2016

Temp ( °F °C ) Dew Point ( °F °C ) Humidity (%) Winds ( mph kmh ) Pressure ( in mb ) Visibility ( mi km ) Precip ( " mm )
12:54 am 00:54 Cloudy 52 11.1 47 8.3 83 83 E 10 17 29.81 1009 10 16 0.00 0.00
1:54 am 01:54 Cloudy 52 11.1 47 8.3 83 83 E 8 13 29.80 1009 10 16 0.00 0.00
2:54 am 02:54 Cloudy 52 11.1 47 8.3 83 83 ENE 8 13 29.79 1009 10 16 0.00 0.00
3:27 am 03:27 Cloudy with Light Rain 52 11.1 47 8.3 83 83 E 9 15 29.80 1009 10 16 0.00 0.03
3:35 am 03:35 Cloudy with Light Rain 52 11.1 47 8.3 83 83 E 8 13 29.80 1009 8 13 0.01 0.25
3:50 am 03:50 Cloudy with Light Rain 52 11 46 8 82 82 E 6 9 29.80 1009 10 16 0.02 0.51
3:54 am 03:54 Cloudy with Light Rain 52 11.1 47 8.3 83 83 E 7 11 29.79 1009 10 16 0.02 0.51
4:51 am 04:51 Cloudy with Light Rain 52 11 46 8 82 82 ENE 3 6 29.80 1009 10 16 0.00 0.03
4:54 am 04:54 Cloudy with Light Rain 51 10.6 47 8.3 86 86 NE 5 7 29.79 1009 10 16 0.00 0.03
5:54 am 05:54 Cloudy 51 10.6 47 8.3 86 86 ENE 8 13 29.76 1008 10 16 0.00 0.03
6:54 am 06:54 Cloudy 51 10.6 47 8.3 86 86 ENE 12 19 29.78 1008 10 16 0.00 0.00
7:54 am 07:54 Cloudy 52 11.1 47 8.3 83 83 E 9 15 29.76 1008 10 16 0.00 0.00
8:54 am 08:54 Cloudy 52 11.1 47 8.3 83 83 E 10 17 29.76 1008 10 16 0.00 0.00
9:54 am 09:54 Cloudy 53 11.7 47 8.3 80 80 E 14 22 29.76 1008 10 16 0.00 0.00
10:06 am 10:06 Cloudy 53 11.7 47 8.3 80 80 E 13 20 29.77 1008 10 16 0.00 0.00
10:54 am 10:54 Cloudy 53 11.7 47 8.3 80 80 ENE 9 15 29.75 1008 10 16 0.00 0.00
11:54 am 11:54 Cloudy 54 12.2 47 8.3 77 77 E 12 19 29.74 1007 10 16 0.00 0.00
12:54 pm 12:54 Cloudy 53 11.7 47 8.3 80 80 E 13 20 29.74 1007 10 16 0.00 0.00
1:07 pm 13:07 Cloudy with Drizzle 52 11.1 47 8.3 83 83 ENE 8 13 29.74 1007 4 6 0.00 0.03
1:31 pm 13:31 Cloudy with Light Rain 53 11.7 47 8.3 80 80 ENE 9 15 29.71 1006 6 10 0.00 0.03
1:40 pm 13:40 Cloudy 53 11.7 48 8.9 83 83 NE 9 15 29.71 1006 8 13 0.00 0.03
1:54 pm 13:54 Cloudy 53 11.7 47 8.3 80 80 NE 10 17 29.71 1006 10 16 0.00 0.03
2:54 pm 14:54 Cloudy 53 11.7 46 7.8 77 77 ENE 9 15 29.71 1006 10 16 0.00 0.00
3:54 pm 15:54 Cloudy 53 11.7 46 7.8 77 77 NE 10 17 29.70 1006 10 16 0.00 0.00
4:54 pm 16:54 Cloudy 53 11.7 45 7.2 74 74 ENE 9 15 29.70 1006 10 16 0.00 0.00
5:27 pm 17:27 Cloudy 53 11.7 45 7.2 74 74 ENE 10 17 29.71 1006 10 16 0.00 0.00
5:54 pm 17:54 Cloudy 53 11.7 45 7.2 74 74 E 12 19 29.71 1006 10 16 0.00 0.00
6:54 pm 18:54 Cloudy 52 11.1 45 7.2 77 77 ENE 10 17 29.70 1006 10 16 0.00 0.00
7:34 pm 19:34 Cloudy 52 11 45 7 77 77 ENE 12 19 29.71 1006 10 16 0.00 0.00
7:54 pm 19:54 Cloudy 52 11.1 46 7.8 80 80 ENE 10 17 29.73 1007 10 16 0.00 0.00
8:47 pm 20:47 Cloudy with Light Rain 51 10.6 46 7.8 83 83 E 9 15 29.74 1007 7 11 0.00 0.03
8:51 pm 20:51 Cloudy with Drizzle 52 11 46 8 82 82 ENE 12 19 29.74 1007 5 8 0.00 0.03
8:54 pm 20:54 Cloudy with Drizzle 51 10.6 46 7.8 83 83 ENE 9 15 29.75 1007 5 8 0.00 0.03
9:02 pm 21:02 Cloudy 51 10.6 46 7.8 83 83 VRB 7 11 29.74 1007 8 13 0.00 0.03
9:13 pm 21:13 Cloudy 51 10.6 46 7.8 83 83 ENE 9 15 29.74 1007 10 16 0.00 0.03
9:54 pm 21:54 Cloudy 51 10.6 45 7.2 80 80 ENE 9 15 29.74 1007 10 16 0.00 0.03
10:54 pm 22:54 Cloudy 51 10.6 46 7.8 83 83 ENE 8 13 29.73 1007 10 16 0.00 0.00
11:12 pm 23:12 Cloudy with Drizzle 51 10.6 47 8.3 86 86 ENE 7 11 29.74 1007 6 10 0.00 0.03
11:50 pm 23:50 Cloudy 52 11 46 8 82 82 ENE 8 13 29.74 1007 8 13 0.00 0.03
11:54 pm 23:54 Cloudy 51 10.6 46 7.8 83 83 ENE 9 15 29.73 1007 9 14 0.00 0.03

Powered by AerisWeather